Location: Waco, TX
(31.5480°N, 97.1670°W)
Time: 08:13:37
(UTC-05:00)

ISS - Pass Details

Date: 17 May 2018
Orbit: 402 x 407 km, 51.6° (Epoch: 27 May)

Event Time Altitude Azimuth Distance (km) Brightness Sun altitude
Rises 00:04:16 0° 251° (WSW) 2,307 - -35.6°
Reaches altitude 10° 00:06:36 10° 267° (W) 1,450 - -35.8°
Maximum altitude 00:09:16 23° 322° (NW) 908 - -36.0°
Drops below altitude 10° 00:11:57 10° 17° (NNE) 1,454 - -36.2°
Sets 00:14:18 0° 33° (NNE) 2,314 - -36.4°
